This demonstration page uses our WeatherBlox Daily Observations layout. Learn more.

41.55636, -103.73856

Hourly Observations for May 10, 2017

Temp ( °F °C ) Dew Point ( °F °C ) Humidity (%) Winds ( mph kmh ) Pressure ( in mb ) Visibility ( mi km ) Precip ( " mm )
12:53 am 00:53 Cloudy 58 14.4 53 11.7 84 84 SE 5 7 29.78 1009 10 16.0934 0 0
1:41 am 01:41 Cloudy with Nearby Thunderstorms 57 13.9 53 11.7 87 87 N 3 6 29.8 1009 10 16.0934 0 0.0254
1:53 am 01:53 Cloudy with Nearby Thunderstorms 57 13.9 53 11.7 87 87 NNE 7 11 29.79 1009 10 16.0934 0 0.0254
2:14 am 02:14 Cloudy with Light Rain 55 13 52 11 88 88 NNE 16 26 29.8 1009 10 16.0934 0 0
2:23 am 02:23 Cloudy with Light Rain 54 12.2 50 10 87 87 NNE 18 30 29.8 1009 10 16.0934 0.01 0.254
2:53 am 02:53 Mostly Cloudy 53 11.7 49 9.4 86 86 NNE 16 26 29.78 1008 10 16.0934 0.01 0.254
3:41 am 03:41 Cloudy 53 11.7 50 10 89 89 W 8 13 29.83 1010 10 16.0934 0 0
3:49 am 03:49 Cloudy 54 12 50 10 88 88 WNW 5 7 29.83 1010 10 16.0934 0 0
3:53 am 03:53 Cloudy 54 12.2 50 10 87 87 WNW 9 15 29.81 1009 10 16.0934 0 0
4:21 am 04:21 Cloudy 53 11.7 50 10 89 89 NNW 10 17 29.85 1011 10 16.0934 0 0
4:53 am 04:53 Cloudy 52 11.1 49 9.4 89 89 N 10 17 29.81 1010 10 16.0934 0 0
5:53 am 05:53 Cloudy 52 11.1 48 8.9 86 86 N 6 9 29.87 1012 10 16.0934 0 0
6:08 am 06:08 Cloudy 52 11 48 9 88 88 N 5 7 29.88 1012 10 16.0934 0 0
6:53 am 06:53 Mostly Cloudy 53 11.7 48 8.9 83 83 NNW 7 11 29.88 1012 10 16.0934 0 0
7:53 am 07:53 Cloudy 52 11.1 48 8.9 86 86 N 16 26 29.89 1012 10 16.0934 0 0
8:35 am 08:35 Cloudy 52 11.1 48 8.9 86 86 N 14 22 29.91 1013 10 16.0934 0 0
8:53 am 08:53 Cloudy 53 11.7 48 8.9 83 83 N 12 19 29.92 1013 10 16.0934 0 0
9:00 am 09:00 Cloudy 54 12 48 9 82 82 N 14 22 29.91 1013 10 16.0934 0 0
9:53 am 09:53 Cloudy 53 11.7 48 8.9 83 83 NNE 13 20 29.92 1013 10 16.0934 0 0
10:53 am 10:53 Cloudy 53 11.7 47 8.3 80 80 N 9 15 29.96 1014 10 16.0934 0 0
11:00 am 11:00 Cloudy 54 12 46 8 77 77 NNE 12 19 29.94 1014 10 16.0934 0 0
11:19 am 11:19 Cloudy 53 11.7 47 8.3 80 80 NE 12 19 29.97 1015 10 16.0934 0 0
11:53 am 11:53 Cloudy 53 11.7 47 8.3 80 80 NNE 8 13 29.98 1015 10 16.0934 0 0
12:53 pm 12:53 Cloudy 53 11.7 47 8.3 80 80 NE 13 20 29.97 1015 10 16.0934 0 0
1:17 pm 13:17 Cloudy 54 12.2 47 8.3 77 77 NE 13 20 29.94 1014 10 16.0934 0 0
1:53 pm 13:53 Cloudy 58 14.4 48 8.9 70 70 ENE 9 15 29.96 1015 10 16.0934 0 0
2:18 pm 14:18 Cloudy 57 14 46 8 67 67 NE 9 15 29.91 1013 10 16.0934 0 0
2:27 pm 14:27 Cloudy 56 13.3 47 8.3 72 72 NNE 15 24 29.97 1015 10 16.0934 0 0
2:53 pm 14:53 Cloudy 56 13.3 47 8.3 72 72 NE 9 15 29.99 1016 10 16.0934 0 0.0254
3:23 pm 15:23 Cloudy 56 13.3 47 8.3 72 72 E 7 11 29.97 1015 10 16.0934 0 0
3:30 pm 15:30 Cloudy 55 13 46 8 72 72 E 8 13 29.97 1015 10 16.0934 0 0
3:53 pm 15:53 Cloudy with Light Rain 55 12.8 47 8.3 74 74 ENE 13 20 30 1016 9 14.48406 0 0.0254
4:53 pm 16:53 Cloudy with Light Rain 53 11.7 50 10 89 89 Calm 30.01 1016 9 14.48406 0.05 1.27
5:36 pm 17:36 Cloudy with Light Rain 54 12 50 10 88 88 ESE 3 6 30 1016 10 16.0934 0 0
5:53 pm 17:53 Cloudy 54 12.2 50 10 87 87 SSE 7 11 30.02 1017 10 16.0934 0 0.0254
6:11 pm 18:11 Cloudy 55 12.8 51 10.6 87 87 E 6 9 29.97 1015 10 16.0934 0 0
6:20 pm 18:20 Cloudy 55 13 48 9 77 77 E 12 19 29.97 1015 10 16.0934 0 0
6:37 pm 18:37 Cloudy 54 12.2 48 8.9 80 80 ENE 10 17 30 1016 10 16.0934 0 0
6:53 pm 18:53 Cloudy 53 11.7 48 8.9 83 83 ENE 14 22 30.02 1017 10 16.0934 0 0
7:53 pm 19:53 Mostly Cloudy 51 10.6 46 7.8 83 83 ENE 9 15 30.04 1017 10 16.0934 0 0
8:53 pm 20:53 Mostly Clear 49 9.4 45 7.2 86 86 Calm 30.07 1018 10 16.0934 0 0
9:53 pm 21:53 Cloudy 49 9.4 46 7.8 90 90 Calm 30.09 1019 10 16.0934 0 0
10:53 pm 22:53 Cloudy 49 9.4 45 7.2 86 86 Calm 30.1 1019 10 16.0934 0 0
11:53 pm 23:53 Clear 44 6.7 41 5 89 89 N 7 11 30.11 1020 10 16.0934 0 0

Powered by AerisWeather